Hundreds of Positions Available Nationwide

Apply for an Exciting Career Opportunity!


The following jobs are currently available.
Click on the job to find out more about the requirements for the position.

#Job IDTitle# OpeningsLocationRateDurationPostedCategory 
1 190779 Manufacturing Technician I 1Miami, FLUp to $18.15 DOE12 mos04/22/2021MANO,
2 190780 Facilities Technical Design 3 1Chantilly, VA$DOE12 months04/22/2021PROO, TS
3 190781 Technical Writer 1Millersburg, PAUp to $27.65 DOE12 mos04/22/2021ITO,
4 190782 Project Manager I 1Eugene, ORUp to $17.50 DOE12 mos04/22/2021PROO,
5 190783 Technical Writer 1Fremont, CAUp to $33.75 DOE8 mos04/22/2021ITO,
6 190784 Clean Room Operator 1Miami, OKUp to $13.75 DOE6 mos04/22/2021GENO,
7 190785 Clean Room Operator 1Miami, OKUp to $13.75 DOE6 mos04/22/2021GENO,
8 190786 Clean Room Operator 1Miami, OKUp to $13.75 DOE6 mos04/22/2021GENO,
9 190787 Clean Room Operator 1Miami, OKUp to $13.75 DOE6 mos04/22/2021GENO,
10 190788 Clean Room Operator 1Miami, OKUp to $13.75 DOE6 mos04/22/2021GENO,
11 190789 Assembler II 1Franklin, MAUp to $18.00 DOE12 mos04/22/2021GENO,
12 190790 Administrative Assistant 1Cypress, CAUp to $17.00 DOE3 months04/22/2021ADMO,
13 190791 Financial Analyst 1Grand Prairie, TXUp to $40.00 DOE4 months04/22/2021PROO,
14 190752 Manufacturing Associate 1Cambridge, MAUp to $30.00 DOE6 mos04/21/2021MANO,
15 190753 System Integrated Engineer 1Lexington, KS$DOE12 months04/21/2021ADMO, OM
16 190754 Electrical Technician 4Littleton/ Waterton, CO$DOE13 months04/21/2021MANO,
17 190755 QC Microbiology Analyst 1Cambridge, MA$DOE8 mos04/21/2021SCIO,
18 190756 Packaging Technician 1Mount Prospect, ILUp to $15.00 DOE12 mos04/21/2021GENO,
19 190757 Talent Operation Coordinator 1Santa Monica, CAUp to $22.00 DOE2 months04/21/2021ADMO,
20 190758 Admin Functional Support 2 1Newport News, VA$18.34 to $24.13 DOE1 year04/21/2021ADMO, CON
21 190759 Lab Technician 1Franklin, MAUp to $22.00 DOE11 months04/21/2021SCIO,
22 190760 Manufacturing Technician I 1Miami, FLUp to $18.15 DOE12 months04/21/2021SCIO,
23 190761 Procurement Specialist III 1Anaheim, CAUp to $40.00 DOE11 months04/21/2021ADMO,
24 190762 Manufacturing Technician I 1Miami, FLUp to $18.15 DOE12 mos04/21/2021MANO,
25 190763 QC Microbiology Analyst 1Cambridge, MAUp to $48.00 DOE8 mos04/21/2021SCIO,
26 190765 Product Acceptance Spec B 2Goodyear, AZ$DOE10 Months04/21/2021MANO,
27 190766 Construction Supervisor 1San Diego, CA$DOE7 months04/21/2021ADMO,
28 190767 Desktop Support Technician 1Londonderry, NHUp to $28.00 DOE12 months04/21/2021ITO,
29 190768 Business Consultant - Level 2 1Burbank, CA$DOE3 Months04/21/2021PROO,
30 190769 Aircraft Painter 1Greenville, SC$DOE6 months04/21/2021MANO,
31 190770 Customer Support Representative 1Lenexa, KSUp to $15.00 DOE4 months04/21/2021ADMO,
32 190771 Customer Support Representative 1Lenexa, KSUp to $15.00 DOE4 months04/21/2021ADMO,
33 190773 Document Clerk 1Plainsboro, NJ$DOE3 months04/21/2021ADMO,
34 190774 Sales Rep 1Kissimme, Fl$DOE2 months04/21/2021ADMO,
35 190775 Lab Technician 1New York City, Ny$DOE6 months04/21/2021SCIO,
36 190776 Manufacturing Technician 1 1Miami, FLUp to $18.15 DOE12 Months04/21/2021MANO,
37 190777 Scientist III 1West Hills, caUp to $33.75 DOE 04/21/2021SCIO,
38 190778 6H6GI4-Manufacturing Planner 4 - 67B-Electrical/Electronics 1Mesa, AZ$DOE10 Months04/21/2021MANO,
39 190713 Project Component Engineer 2Canoga Park, CA$DOE12 months04/20/2021ENGO, OM
40 190714 Project and Component Engineer 2Canoga Park, CA$DOE7 months04/20/2021ENGO, OM
41 190715 Design Engineer 3Canoga Park, CA$DOE7 months04/20/2021ENGO, OM
42 190716 Supply Chain Specialist 1 1Mesa, AZ$DOE12 Months04/20/2021PROO,
43 190717 Embedded S/W Engineer III 1Orlando, FLUp to $80.00 DOE12 months04/20/2021ITO, OM
44 190718 Design Engineer III 3Canoga Park, CA$DOE7 months04/20/2021ITO, OM
45 190719 Circuit Board Engineer 1Fort Woth, TX$DOE12 Months04/20/2021ENGO,
46 190720 HR Generalist 1Bridgewater, NJUp to $30.00 DOE2 mos04/20/2021PROO,
47 190721 HR Generalist 1Fair Lawn, NJUp to $30.00 DOE2 mos04/20/2021PROO,
48 190723 Assembler 1Skaneateles, NY$DOE12 months04/20/2021MANO,
49 190724 Facilities Specialist 1Cincinnatti, OH$14 to $15.00 DOE 04/20/2021GENO, OM
50 190725 Assembler 1Skaneateles, NY$DOE12 months04/20/2021MANO,
51 190727 Assembler 1Skaneateles, NY$DOE12 months04/20/2021MANO,
52 190728 Program Manager 1Ayer, MAUp to $55.00 DOE6 Months04/20/2021PROO,
53 190729 Design Engineer II 1Canoga Park, CA$DOE7 months04/20/2021ENGO, OM
54 190730 Scientist I 1Princeton, NJ$DOE5 mos04/20/2021SCIHSM,
55 190731 Project and Component Engineer II 1Redmond, WA$DOE6 months04/20/2021ENGO,
56 190732 Sales Assistant 3New York City, NY$DOE6 months04/20/2021PROO,
57 190733 Analysis/ Systems Engineer 2Huntsville, AL$DOE12 months04/20/2021ITO, OM
58 190734 Clean Room Operator 1Miami, OKUp to $12.50 DOE3 months04/20/2021SCIO,
59 190735 Clean Room Operator 1Miami, OKUp to $13.75 DOE12 mos04/20/2021GENO,
60 190736 Production Technologist I 1St. Louis, MO$DOE3 months04/20/2021MANO,
61 190737 Test Technician II 1Archbald, PA$DOE9 months04/20/2021MANO,
62 190738 Packaging Technician 1 1Rockford, IL$DOE5 mos04/20/2021GENO,
63 190739 Customer Service Representative 1Wauwatosa, WI$DOE8 months04/20/2021ADMO,
64 190741 Technical Editor and Writer 1 3Saint Augustine, FL$32.52 to $40.65 DOE24 months04/20/2021PROO,
65 190742 Electrical Technician 1Nellis AFB, NV$DOE1 month04/20/2021MANO, S
66 190743 Telephone Operator 1Kansas City, MO$14.23 to $17.30 DOE4 months04/20/2021ADMO,
67 190744 Electrical Technician 2Nellis AFB, NV$DOE7 months04/20/2021MANO, S
68 190745 Data Analyst 1Tewksbury, MAUp to $60.00 DOE6 mos04/20/2021PROO,
69 190746 Manufacturing Engineer 3 5Hazelwood, MO$DOE6 Months04/20/2021ENGHSM,
70 190747 Manufacturing Engineer 3 5Hazelwood, MO$DOE6 Months04/20/2021ENGO,
71 190748 Organic/ Medicinal Chemist 1Pleaseanton, CAUp to $24.00 DOE12 months04/20/2021SCIO,
72 190749 Assembler 1 1Hillsboro, OR$15 to $18.00 DOE3 mos04/20/2021MANO,
73 190750 Manufacturing Operator 2 1Carlsbad, CAUp to $17 DOE12 mos04/20/2021SCIO,
74 190682 QC Microbiology Analyst 1Cambridge, MA$DOE3 mos04/19/2021SCIO,
75 190683 Manufacturing Planner 3 1San Antonio, TX$DOE6 months04/19/2021ENGHSM,
76 190684 Manufacturing Planner 3 1San Antonio, TX$DOE6 months04/19/2021ENGHSM,
77 190686 Assembler 1Lancaster, NYUp to $14.36 DOE6 months04/19/2021MANO,
78 190687 Supply Chain Specialist 1 2Ridley Park, PA$DOE6 Months04/19/2021PROO,
79 190688 Production Coordinator 1Orlando, FL$20 to $24.00 DOE12 months04/19/2021GENO,
80 190689 Test Technician II 1Archbald, PAUp to $22.68 DOE9 monhts04/19/2021MANO,
81 190690 Field Inspector 1Remote, MO$DOE12 months04/19/2021MANO,
82 190691 Distribution Field Construction Supervisor 1Remote, MO$DOE12 months04/19/2021PROO,
83 190692 Technical Writer 1Franklin, MAUp to $42.75 DOE6 mos04/19/2021ITO,
84 190693 Systems Engineer III 1Canoga Park, CA$DOE5 months04/19/2021ITO, OM
85 190694 Electric Thruster Engineer 2Redmond, WA$DOE7 months04/19/2021ENGO,
86 190695 Configuration Manager II 1Hunstville, AL$DOE12 months04/19/2021ADMO, OM
87 190696 Materials Management Analyst 1 2Kennedy Space Center, FL$DOE12 Months04/19/2021PROO, S
88 190697 Electronics Technician III 1Olando, FLUp to $35.00 DOE12 months04/19/2021MANCOV, OM
89 190698 Logistics Management Analyst 1Alexandria, VA$DOE6 months04/19/2021PROO, TS
90 190699 Budget Analyst 1Fort Bragg, NC$DOE6 months04/19/2021ADMO, TS
91 190700 Product Review Engineer 2 1San Antonio, TX$DOE12 Months04/19/2021ENGO, OM
92 190702 Material Handler 1Auburn, ALUp to $12.00 DOE3 months04/19/2021GENO,
93 190703 Technical Editor and Writer 2 1Newport News, VA$25.11 to $33.04 DOE1 year04/19/2021PROO, CON
94 190704 Program Planning Scheduling Analyst 3 2Chandler, AZ$38.88 to $120.40 DOE9 months04/19/2021PROO,
95 190705 QC Microbiology Analyst 1Cambridge, MA$45 to $45.01 DOE6 mos04/19/2021SCIO,
96 190706 Assembler A 4Sylmar, CA$DOE12 Months04/19/2021MANO,
97 190707 Integration & Test Engineer IV 1Orlando, FLUp to $88.35 DOE3 Months04/19/2021ENGO, S
98 190708 Final Assembly Inspector 3 1Lake Charles, LA$24.83 to $29.63 DOE9 months04/19/2021MANO,
99 190709 Supply Chain Specialist 1 7Hazelwood, MO$DOE8 Months04/19/2021PROO,
100 190710 Human Resources Assistant 3 5Irving, TX$18.67 to $23.34 DOE12 months04/19/2021ADMO,
101 190711 Human Resources Assistant 3 5Irving, TX$18.67 to $23.34 DOE12 months04/19/2021ADMO,
102 190658 Material Handler II 1Franklin, MAUp to $15.99 DOE3 mos04/16/2021GENO,
103 190659 Creo Product Definition and Verification Designer 1Canoga Park, CA$DOE6-7 months04/16/2021ENGO,
104 190660 QC Scientist I 1Cincinnati, OH$DOE12 mos04/16/2021SCIO,
105 190663 Associate Technologist 1Princeton, NJ.Up to $23.56 DOE3 months04/16/2021SCIO,
106 190664 Post-Market Surveillance Specialist 1Fremont, CAUp to $45.00 DOE8 MOS04/16/2021PROO,
107 190665 Procurement Manager 1Plainsboro, NJ$DOE9 months04/16/2021ADMO,
108 190667 Lab Technician 1New York City, NY.$DOE6 months04/16/2021SCIO,
109 190669 Production/Inventory Coordinator A 1North Charleston, SC$DOE6 Months04/16/2021GENHSM,
110 190670 Production/Inventory Coordinator A 1North Charleston, SC$DOE6 Months04/16/2021GENO,
111 190671 HMA Research Fellow 1Wauwatosa, WIUp to $35.26 DOE12 months04/16/2021SCIO,
112 190672 Software Engineer 2 1Berkeley, MO$DOE6 Months04/16/2021ITO, TS
113 190673 Human Resource Specialist 1Pittsburgh, PAUp to $17.00 DOE12 mos04/16/2021PROO,
114 190676 Product Acceptance Specialist A 2Wichita, KS$DOE12 Months04/16/2021MANO,
115 190677 Supply Chain Coordinator 2 2Chandler, AZ$17.5 to $20.00 DOE12 months04/16/2021PROO,
116 190678 Operator 1/Packaging 1Carlsbad, CAUp to $15.00 DOE 04/16/2021GENO,
117 190679 Inbound Customer Service Representative 1Denver, CO$17 to $17.30 DOE3 Months Contract To Hire04/16/2021ADMO,
118 190680 Lab Support Technician 1Florence, SC$DOE 04/16/2021GENO,
119 190645 Graphic Artist 1 1Saint Augustine, FL$19.77 to $24.72 DOE12 months04/15/2021PROO,
120 190649 Health Services Administrator 1Everett, WA$DOE12 Months04/15/2021PROO,
121 190651 Document Control Specialist 1Logan, UTUp to $17.00 DOE10 mos04/15/2021ADMO,
122 190652 Logistics Data/Pub Spec 4 1Fort Walton Beach, FL$DOE12 Months04/15/2021ITO, S
123 190653 Engineer Scientist/ QC 1Fremont, CAUp to $26.00 DOE6 months04/15/2021SCIO,
124 190654 Test Technician 1Madison, WIUp to $18.99 DOE12 months04/15/2021MANO,
125 190655 Telecom Program Manager 1Remote, MO$DOE12 months04/15/2021ITHSM,
126 190657 Network Engineer II 1Kansas City, Missouri$DOE7 months04/15/2021ITO,
127 190618 QC Technician 1Cambridge, MA$DOE3 mos04/14/2021SCIO,
128 190619 Sr Financial Analyst 1Northampton, MAUp to $55.00 DOE6 months04/14/2021ADMO, OM
129 190620 Assembler 3 1Elkridge, MD$14.01 to $17.51 DOE24 months04/14/2021MANO,
130 190621 Supply Chain Database Analyst 1Rockwood, TNUp to $30.00 DOE6 mos04/14/2021PROO,
131 190623 Senior Scrum Master 1Anaheim, CAUp to $70.00 DOE12 months04/14/2021ITO, OM
132 190626 Assembler 2 1Northridge, CA$14.67 to $21.42 DOE6 months04/14/2021MANO,
133 190627 Payroll Assistant 3 1Irving, TX$18.67 to $23.34 DOE12 months04/14/2021ADMO,
134 190628 Warehouse Loader 5Indianapolis, INUp to $14.00 DOE2 months04/14/2021GENO,
135 190632 Engineer Communication Systems 2 2Redondo Beach, CA$27.72 to $34.66 DOE6 months04/14/2021ENGO, TS
136 190637 Packaging Technician I 1Mount Prospect, ILUp to $15.00 DOE12 months04/14/2021MANO,
137 190639 Packaging Technician 1Mount Prospect, ILUp to $15.00 DOE12 months04/14/2021MANO,
138 190640 Systems and Data Analyst 4 2Hazelwood, MO$DOE6 Months04/14/2021ITO,
139 190642 Programmer Analyst 3 1Hazelwood, MO$DOE6 Months04/14/2021ITO,
140 190643 Programmer Analyst 4 2Hazelwood, MO$DOE6 Months04/14/2021ITO,
141 190583 Associate Manufacturing Technician 1Pleasanton, CAUp to $24.20 DOE12 mos04/13/2021MANO,
142 190584 Associate Manufacturing Technician 1Pleasanton, CAUp to $20.00 DOE12 mos04/13/2021MANO,
143 190585 Associate Manufacturing Technician 1Pleasanton, CAUp to $22.00 DOE12 mos04/13/2021MANO,
144 190587 Customer Service Rep 2Sarasota, FL$20 to $25.00 DOE4 months04/13/2021ADMO,
145 190588 Electro-Mechanical Assembler 1Fremont, CA$DOE11 mos04/13/2021GENO,
146 190589 Labeling Support 1Fremont, CAUp to $30.00 DOE8 mos04/13/2021PROO,
147 190592 Document Control Administrator 1 1Fremont, CAUp to $40.00 DOE8 mos04/13/2021PROHSM,
148 190595 Manufacturing Engineer 3 1Hazelwood, MO$DOE12 Months04/13/2021ENGHSM, OM
149 190596 Sturctual Design Engineer 1Hazelwood, MO$DOE12 months04/13/2021ENGHSM, OM
150 190597 Milling Machine Machinist 3 1Lake Charles, LA$16.35 to $32.13 DOE12 months04/13/2021MANO,
151 190598 Manufacturing Engineer 3 1Hazelwood, MO$DOE12 Months04/13/2021ENGO, OM
152 190599 Manufacturing Engineer 1 3Hazelwood, MO$DOE12 Months04/13/2021ENGO, OM
153 190600 Injection Molding Fabricator 4Ontario, CA$DOE6 months04/13/2021MANO,
154 190602 Systems Engineer 1Wright-Patterson AFB, OHUp to $40.00 DOE7 months04/13/2021ENGO, OM
155 190603 Configuration Analyst 3 1Dulles, VA$84.59 to $105.74 DOE6 months04/13/2021ITO, TS
156 190604 Software Engineer 1Wright-Patterson AFB, OH$DOE8 months04/13/2021ITO, OM
157 190605 Scientist II 1West Hills, CAUp to $26.00 DOE6 mos04/13/2021SCIO,
158 190606 Quality Analyst 1 1Elkton, MDUp to $28.56 DOE6 months04/13/2021MANO,
159 190608 Manufacturing Operations Analyst 3 10San Antonio, TX$DOE6 Months04/13/2021PROHSM,
160 190610 Buyer 1Franklin, MAUp to $26.00 DOE6 months04/13/2021ADMO,
161 190612 Software Engineer III 2Hazelwood, MO$DOE11 months04/13/2021ITO,
162 190613 Computer Systems Analyst 3 1Linthicum, MDUp to $75.36 DOE6 months04/13/2021ITO, S
163 190614 Data Analyst 1Grand Prairie, TX$DOE13 months04/13/2021ITO,
164 190615 Planner/Scheduler I 1Garden Grove, CAUp to $20.00 DOE3 Months04/13/2021PROO,
165 190616 Systems Engineer 2 1Berkeley, MO$DOE12 Months04/13/2021ENGO, OM
166 190561 Project and Component Engineer 3Canoga Park, CA$DOE6+ months04/12/2021ENGO, OM
167 190563 Sr Biopharmaceutical Technician - Downstream 1St. Louis, MOUp to $27.31 DOE6 mos04/12/2021SCIO,
168 190564 Senior Technical Support Representative 2Skaneateles, NY$26.44 to $31.25 DOEDirect hire04/12/2021ITO,
169 190565 Machine Operator 1Littleton/ Waterton, CO$DOE15 months04/12/2021MANO,
170 190566 Help Desk Analyst II 1Remote, MO$DOE7 months04/12/2021ITHSM,
171 190567 Sr Assembler 1Scotts Valley, CAUp to $22.50 DOE12 mos04/12/2021GENO,
172 190568 Marketing Associate 1Pittsburgh, PAUp to $35.00 DOE8 mos04/12/2021PROHSM,
173 190569 Material Handler I 1Wortham, TX$DOE8 mos04/12/2021GENO,
174 190570 Formulations/R&D Scientist 1King of Prussia, PA$DOE6 months04/12/2021SCIO,
175 190571 Quality Control Engineer 1Fremont, CAUp to $26.00 DOE8 mos04/12/2021ENGO,
176 190572 Formulations/R&D Lab Technician 1King of Prussia, PA$DOE6 months04/12/2021SCIO,
177 190573 Quality Control Specialist 1Fremont, CAUp to $26.00 DOE8 mos04/12/2021ENGO,
178 190575 Manufacturing Engineer III 1Huntington Beach, CA$DOE6 months04/12/2021ENGHSM,
179 190576 Accounting Analyst 1Kansas City, MO$DOE7 months04/12/2021ADMHSM,
180 190578 Mech Sys Design & Anlys Engr 1 1Berkeley, MO$DOE12 Months04/12/2021ENGO, OM
181 190579 Supply Chain Specialist 2 1Hazelwood, MO$DOE12 Months04/12/2021PROHSM,
182 190580 Supply Chain Specialist 2 1Hazelwood, MO$DOE12 Months04/12/2021PROHSM,
183 190581 Fire Protection Oper Specialist B 1Mesa, AZ$DOE12 Months04/12/2021PROHSM, OM
184 190533 Support Planning & Management Specialist 3 1Hazelwood, MO$DOE12 months04/09/2021ENGO, OM
185 190535 Project System Engineer 4Redmond, WA$DOE6 months04/09/2021ENGO,
186 190536 Database Engineering Clerk 1Remote, MO$DOE18 months04/09/2021ADMO,
187 190537 Systems Engineer 3 1Hazelwood, MO$DOE12 Months04/09/2021ENGO, OM
188 190538 Engineering Technician I 1Culpeper, VA$DOE6 months04/09/2021MANO,
189 190540 Systems Engineer 1 1Hazelwood, MO$DOE12 Months04/09/2021ENGO, OM
190 190541 Design and Analysis Engineer 1 3Berkeley, MO$DOE12 Months04/09/2021ENGO, OM
191 190542 Software Engineer 1St. Charles, MO$DOE12 months04/09/2021ITO, OM
192 190543 Software Engineer 1St.Charles, MO$DOE12 months04/09/2021ITO, OM
193 190544 Software Engineer II 2St. Charles, MO$DOE12 months04/09/2021ITO, OM
194 190545 Support Planning & Management Specialist 4 1Oklahoma City, OK$DOE12 Months04/09/2021PROO, OM
195 190546 Manufacturing Engineer 2 2Oklahoma City, OK$DOE6 Months04/09/2021ENGO,
196 190549 Support Planning & Mgmt Spec 3 1Oklahoma City, OK$DOE12 Months04/09/2021PROO, OM
197 190550 Manufacturing Engineer 3 1Oklahoma City, OK$DOE6 Months04/09/2021ENGHSM,
198 190551 Manufacturing Engineer 3 1Oklahoma City, OK$DOE6 Months04/09/2021ENGHSM,
199 190553 Lab Technician 1Princeton, NJ$DOE6 months04/09/2021ENGO,
200 190554 Training Device Technician 1 1Hazelwood, MO$DOE12 Months04/09/2021MANO, S
201 190555 Digital Marketing Specialist 1Carlsbad, CAUp to $30.00 DOE13 months04/09/2021ADMO,
202 190556 Product Repair/Mod Tech B 1NAS Lemoore, CA$DOE12 Months04/09/2021MANO, S
203 190558 Aircraft Structural Assembler-Vertical Lift 3Mesa, AZ$DOE6 Months04/09/2021MANO,
204 190559 CNC Programmer 2Tupelo, MI$100000 to $105000.00 DOE 04/09/2021MANO, OM
205 190560 Recruiter Specialist 2 1Hazelwood, MO$DOE12 Months04/09/2021PROO,
206 190502 Precision Structural Assembler 10Mesa, AZ$DOE6 months04/08/2021MANO,
207 190505 Manufacturing Operator 1Millersburg, PAUp to $18.00 DOE12 mos04/08/2021MANO,
208 190507 Production/Inventory Coordinator A 3Mesa, AZ$DOE12 Months04/08/2021GENO,
209 190509 Scientist I, Manufacturing Sciences 1Hunt Valley, MD$DOE12 mos04/08/2021SCIO,
210 190510 Aircraft Assembly Technician-Vertical Lift 6Mesa, AZ$DOE6 Months04/08/2021MANO,
211 190512 Product Repair/Mod Tech B 1NAS Lemoore, CA$DOE12 Months04/08/2021MANO, S
212 190513 Clean Room Operator 1Miami, OKUp to $13.75 DOE12 mos04/08/2021GENO,
213 190514 Clean Room Operator 1Miami, OKUp to $13.75 DOE12 mos04/08/2021GENO,
214 190515 Systems Engineer 3 1Hazelwood, MO$DOE12 Months04/08/2021ENGO, OM
215 190516 Systems Engineer 4 1Hazelwood, MO$DOE12 Months04/08/2021ENGO, OM
216 190517 Customer Support Engineer II 1Oklahoma City, OK$DOE12 months04/08/2021ENGO, OM
217 190518 Software Engineer 3 2Oklahoma City, OK$DOE8 Months04/08/2021ITO, S
218 190519 Systems Engineer 3 1Hazelwood, MO$DOE12 Months04/08/2021ENGO, OM
219 190520 Software Engineer 2 1Oklahoma City, OK$DOE8 Months04/08/2021ITO, S
220 190522 Property/Asset Control Support 1 1Redondo Beach, CA$18.01 to $22.51 DOE12 months04/08/2021GENO,
221 190523 Systems Engineer 2 1Berkeley, MO$DOE12 Months04/08/2021ENGO, Om
222 190524 Product Data Mgmt Specialist 2 1Hazelwood, MO$DOE12 Months04/08/2021PROO, S
223 190525 Project Engineer 5 1Hazelwood, MO$DOE12 Months04/08/2021ENGO, OM
224 190526 Project Engineer 4 1Hazelwood, MO$DOE12 Months04/08/2021ENGO, OM
225 190527 Project Engineer 4 1Hazelwood, MO$DOE12 Months04/08/2021ENGO, OM
226 190528 Systems Engineer 2 1Berkeley, MO$DOE12 Months04/08/2021ENGO, OM
227 190529 6K8CI2-Systems Engineer 2 - 6G7-Sys Integr, Ver & Validation 1Berkeley, MO$DOE12 Months04/08/2021ENGO, OM
228 190530 6D2EI2-Product Data Mgmt Engr 2 - 6D2EI2-Product Data Mgmt Engr 2 1Berkeley, MO$DOE12 Months04/08/2021ENGO, OM
229 190531 Project Manager/Integrated Logistics Support 1Hazelwood, MO$DOE24 Months04/08/2021PROO, OM
230 190471 Manufacturing Operations Analyst 3 10San Antonio, TX$DOE6 months04/07/2021PROHSM,
231 190472 Methods Procurement Analyst 3 4San Antonio, TX$DOE6 months04/07/2021PROHSM,
232 190475 Facilities Technician 1Los Angeles, CA$20 to $25.00 DOE6+ months04/07/2021GENO,
233 190477 Production Scheduler/Customer Service 1Sarasota, FL$20 to $24.00 DOE5 months04/07/2021PROO,
234 190478 Material and Process Engineer 2Culpeper, VA$DOE6 months04/07/2021ENGO,
235 190481 Support Planning & Management Specialist 4 1Ridley Park, PA$DOE7.5 Months04/07/2021ENGO, OM
236 190482 Assembler 5Shoreview, MN$15 to $16.00 DOE12 months04/07/2021MANO,
237 190484 QC Scientist I 1St. Louis, MOUp to $29.32 DOE4 mos04/07/2021SCIO,
238 190486 Sheet Metal Mechanic 5Greenville, SC$DOE12 months04/07/2021MANO,
239 190487 Vend 1US-CA, Up to $53.00 DOE2 Months04/07/2021PROO,
240 190488 Structural Analysis Engineer 3 1Hazelwood, MO$DOE12 Months04/07/2021ENGO, S
241 190490 Labeling Support 1Fremont, CAUp to $30.00 DOE8 mos04/07/2021PROO,
242 190492 Tool Coordinator 2 1Mountain Home AFB, ID$DOE12 Months04/07/2021GENO, S
243 190495 Inventory Control Specialist II 1Plano, TXUp to $25.00 DOE3 months04/07/2021GENO,
244 190496 Lab Technician 1Plainsboro, NJ$DOE3 months04/07/2021ENGO,
245 190497 Business Consultant 1Burbank, CAUp to $91.28 DOE6 Months04/07/2021PROO,
246 190498 Meter Reader Clerk 1Kansas City, MO$16.24 to $20.55 DOE9 months04/07/2021ADMHSM,
247 190499 Mechanical Engineer 1Fort Worth, TX$DOE12 months04/07/2021ENGO, S
248 190500 Desktop Support Technician 1Londonderry, NHUp to $28.00 DOE12 months04/07/2021ITO,
249 190501 Recruiter - Aerospace & Defense 1Goleta, CAUp to $60.00 DOE6 months04/07/2021ADMO,
250 190431 Logistics Data/Publication Specialist 2 2Mesa, AZ$DOE12 months04/06/2021ENGO, I
251 190433 IT Service Desk Intern 1Wright-Patterson AFB, ,Up to $22.00 DOE6 months04/06/2021ITO,
252 190434 Production Supervisor 1Stuart, FLUp to $35.00 DOE6 -9 months04/06/2021MANO,
253 190435 Technical Writer 1Wright-Patterson AFB, OHUp to $24.00 DOE5 months04/06/2021PROO, OM
254 190437 Janitor Maintenance 1Stennis, MS$DOE6 months04/06/2021GENO,
255 190438 Avionic Technician 1Greenville, SC$DOE12 months04/06/2021MANO,
256 190440 Structural Analysis Engineer 1 5Oklahoma City, OK$DOE12 Months04/06/2021ENGO, OM
257 190443 Software Engineer 4 1Hazelwood, MO$DOE3 Months04/06/2021ITO, S
258 190445 Logistics Management Analyst 3Tampa, Fl$DOE12 months04/06/2021ADMO, S
259 190447 Electrical Design and Analysis Engineer 4 21Hazelwood, MO$DOE12 Months04/06/2021ENGO,
260 190448 Office Assistant 1Lexington, MAUp to $23.00 DOE8 mos04/06/2021ADMO,
261 190451 Customer Support Administrator 1Remote, MIUp to $20.00 DOE6 months04/06/2021ADMO,
262 190452 Customer Support Administrator 1Remote, MIUp to $20.00 DOE5 months04/06/2021ADMO,
263 190454 Systems Engineer/ Verification III 1Jupiter, FL$DOE 04/06/2021ITO, s
264 190455 Embedded S/W Engineer III 1Orlando, FL$DOE12 months04/06/2021ITO, OM
265 190456 Assembler 2 2Plymouth, MN$14.01 to $26.06 DOE12 months04/06/2021MANO,
266 190457 Project Engineer 5 1Hazelwood, MO$DOE12 Months04/06/2021ENGHSM, OM
267 190458 Embedded S/W Engineer III 1Orlando, FL$DOE12 months04/06/2021ITO, OM
268 190460 Manufacturing Engineer 2 1Oklahoma City, OK$DOE6 Months04/06/2021MANHSM,
269 190461 Embedded S/W Engineer III 1Orlando, FL$DOE12 months04/06/2021ITO, OM
270 190463 QC Associate I 1Alachua, FLUp to $16.96 DOE2 months04/06/2021SCIO,
271 190465 Design and Analysis Engineer 4 1Berkeley, MO$DOE12 Months04/06/2021ENGO, OM
272 190466 Technician II 1Orlando, FL$DOE12 months04/06/2021MANO,
273 190467 Design and Analysis Engineer 3 1Berkeley, MO$DOE12 Months04/06/2021ENGO, OM
274 190468 Design and Analysis Engineer 2 1Berkeley, MO$DOE12 Months04/06/2021ENGO, OM
275 190470 Design and Analysis Engineer 2 1Berkeley, MO$DOE12 Months04/06/2021ENGO, OM
276 190414 Engineering Technician 1Logan, UT$DOE12 mos04/05/2021SCIO,
277 190416 Assembler2 2Madison, AL$13.34 to $16.67 DOE6 months04/05/2021MANO,
278 190417 Engineer Mechanical 3 1Dulles, VA$62.34 to $77.93 DOE12 months04/05/2021ENGO, OM
279 190418 Manufacturing Test Technician 1Mason, OHUp to $21.00 DOE12 months04/05/2021MANO,
280 190419 RF Test Technician 1Mason, OHUp to $26.50 DOE12 months04/05/2021MANO,
281 190420 Associate Scientist II- R&D 1Santa Clara, CAUp to $33.65 DOE6 mos04/05/2021SCIO,
282 190422 Software Engineer 4 1Hazelwood, MO$DOE9 Months04/05/2021ITO,
283 190425 Human Resources Onboarding Specialist 1Torrance, CA$DOE5 months04/05/2021ADMO,
284 190428 General Inspector 1Archbald, PA$DOE9 months04/05/2021MANO,
285 190429 Loader 1Conway, SC$DOE5 Months04/05/2021GENO,
286 190379 QA Specialist 1Fremont, CAUp to $28.00 DOE6 months04/02/2021PROHSM,
287 190380 QC Chemist I 1Pleasanton, CA$DOE12 mos04/02/2021SCIHSM,
288 190392 Aircraft Structures Mechanic 3 18Lake Charles, LAUp to $29.38 DOE6 months04/02/2021MANO,
289 190394 Assembler 1Skaneateles, NY$DOE12 months04/02/2021MANO,
290 190396 Contract Management Specialist 2 1Seattle, WA$DOE7 Months04/02/2021PROO,
291 190399 Software Engineer 1Northampton, MAUp to $65.00 DOE12 months04/02/2021ITO, OM
292 190401 Sys Integratn/Test Engineer III 1Orlando, FL$DOE12 months04/02/2021ITO, OM
293 190402 Sys Integratn/Test Engineer III 1Orlando, FL$DOE12 months04/02/2021ENGO, OM
294 190403 Sys Integratn/Test Engineer III 1Orlando, FL$DOE12 months04/02/2021ENGO, OM
295 190404 Scientist I, Production (Chemistry) 1Eugene, ORUp to $23.00 DOE12 mos04/02/2021SCIO,
296 190407 Quality Inspector III 1Sarasota, FL$DOE7 months04/02/2021MANO,
297 190408 Product Repair/Mod Tech C 6Tinker AFB, OK$DOE12 Months04/02/2021MANO, I
298 190409 Product Repair/Mod Tech C 6Tinker AFB, OK$DOE12 Months04/02/2021MANO, I
299 190410 Data Analyst 1King of Prussia, PA$DOE8 months04/02/2021ADMO,
300 190412 Drafter 3 1Dulles, VA$41.89 to $52.37 DOE12 months04/02/2021ENGO, OM
301 190347 Manufacturing Document Specialist 1Detroit, MIUp to $28.00 DOE5 mos04/01/2021ADMO,
302 190348 QA Technician 1Bedford, MAUp to $26.00 DOE4 mos04/01/2021MANO,
303 190349 Digital Analytics and CRO Engineer 1Durham, NC$DOE8 mos04/01/2021ENGO,
304 190352 Electronic Assembler 1Manassas, VA$DOE12 months04/01/2021MANO, OM
305 190353 Systems Architect 4 2Newport News, VA$49.88 to $65.63 DOE1 year04/01/2021ITO,
306 190355 Software Engineer II/III 1Remote, NY$DOE9 months04/01/2021ITO,
307 190356 Scientist II 1Frederick, MDUp to $30.00 DOE12 mos04/01/2021SCIO,
308 190357 Treasury Coordinator 1Pittsburgh, PAUp to $22.00 DOE12 months04/01/2021PROO,
309 190359 Content Specialist 1Pittsburgh, PAUp to $33.00 DOE3 mos04/01/2021ITO,
310 190364 Production/Inventory Coordinator A 1Mesa, AZ$DOE12 Months04/01/2021GENO,
311 190366 Software Engineer 1Fort Rucker, AL$DOE12 months04/01/2021ITO, OM
312 190367 Software Engineer 1Arlington, TXUp to $90.00 DOE12 months04/01/2021ITO, OM
313 190368 Software Engineer 1 5Hazelwood, MO$DOE12 Months04/01/2021ITO,
314 190369 Assembler 1Manassas, VA$DOE12 months04/01/2021MANO, OM
315 190370 Software Engineer 1 1Hazelwood, MO$DOE12 Months04/01/2021ITO, OM
316 190371 Software Engineer 1Palmdale, CA$DOE8 months04/01/2021ITO,
317 190372 Design and Analysis Engineer 4 1Berkeley, MO$DOE12 Months04/01/2021ENGO, OM
318 190305 Scientist I, Manufacturing 1Eugene, ORUp to $18.75 DOE8 mos03/31/2021SCIO,
319 190308 Manufacturing Planner 3 2San Antonio, TX$DOE6 months03/31/2021ENGHSM,
320 190312 Packaging Technician 1Rockford, ILUp to $16.00 DOE10 mos03/31/2021GENO,
321 190315 Product Data Mgmt Engineer 3 1Hazelwood, MO$DOE5 Months03/31/2021ENGO,
322 190317 Electrical Technician II 1Dallas. TX, $DOE12 months03/31/2021MANHSM, OM
323 190319 Document Control Specialist 1Logan, UTUp to $17.00 DOE9 months03/31/2021ADMO,
324 190323 Technician II 6Orlando, FL$DOE12 months03/31/2021MANCOV,
325 190324 Assembler II 1Franklin, MAUp to $18.00 DOE12 mos03/31/2021GENO,
326 190325 Assembler II 1Franklin, MAUp to $18.50 DOE12 mos03/31/2021GENO,
327 190326 Assembler II 1Franklin, MAUp to $18.00 DOE12 mos03/31/2021GENO,
328 190327 Assembler II 1Franklin, MAUp to $18.00 DOE12 mos03/31/2021GENO,
329 190328 Assembler II 1Franklin, MAUp to $18.00 DOE12 mos03/31/2021GENO,
330 190329 Assembler II 1Franklin, MAUp to $18.00 DOE12 mos03/31/2021GENO,
331 190330 Assembler II 1Franklin, MAUp to $18.00 DOE12 mos03/31/2021GENO,
332 190331 Assembler II 1Franklin, MAUp to $18.00 DOE12 mos03/31/2021GENO,
333 190332 Assembler II 1Franklin, MAUp to $18.00 DOE12 mos03/31/2021GENO,
334 190333 Recruitment Onboarding Specialist 1Littleton/ Waterton, CO$25 to $33.00 DOE15 months03/31/2021ADMO,
335 190335 Assembler II 1Franklin, MAUp to $18.00 DOE12 mos03/31/2021GENO,
336 190339 Assembler II 1Franklin, MAUp to $18.00 DOE12 mos03/31/2021GENO,
337 190341 Assembler II 1Franklin, MAUp to $18.00 DOE12 mos03/31/2021GENO,
338 190342 QA Technician 1Bedford, MAUp to $26.00 DOE6 mos03/31/2021SCIO,
339 190343 Customer Training Specialist 4 1Hazelwood, MO$DOE12 Months03/31/2021PROO,
340 190346 Embedded S/W Engineer III 1Grand Prairie, TX$DOE 03/31/2021ITO, S
341 190281 Recruiter Specialist 1 2Plano, TX$DOE5 months03/30/2021PROHSM,
342 190282 Product Review Engineer 4 3San Antonio, TX$DOE6 months03/30/2021ENGO, S
343 190284 IT SOX Coordinator/Analyst 1Rancho Cordova, CA$DOE10 months03/30/2021ITO,
344 190285 Embedded S/W Engineer III 1Grand Prairie, TX$DOE12 months03/30/2021ITO, S
345 190286 Software Engineer II 1Grand Prairie, TX$DOE12 months03/30/2021ITO, OM
346 190287 Meeting and Event Specialist 1Remote, Up to $43.23 DOE6 months03/30/2021PROO,
347 190290 Quality Control Analyst 1High Point, NC$DOE6 months03/30/2021MANO,
348 190294 Quality Control Inspector 1Petaluma, CA$23.58 to $26.89 DOE12 mos03/30/2021SCIO,
349 190295 Elect Design and Analy Engr 5 1El Segundo, CA$DOE12 Months03/30/2021ENGO,
350 190296 Sr Product Data Steward 1Grand Island, NYUp to $22.50 DOE12 mos03/30/2021PROO,
351 190299 Sr Product Data Steward 1Grand Island, NYUp to $22.50 DOE12 mos03/30/2021PROO,
352 190300 Sr Product Data Steward 1Grand Island, NYUp to $22.50 DOE12 mos03/30/2021PROO,
353 190304 Material Handler 3 1Mesa, AZ$14.75 to $18.44 DOE6 months03/30/2021MANO,
354 190255 Design Engineer 1Canoga Park, CA$DOE6 months03/29/2021ENGO, OM
355 190256 Design Engineer III 1Canoga Park, CA$DOE6 months03/29/2021ENGO, OM
356 190261 Production Mechanic 3Stuart, FLUp to $30.00 DOE6+ months03/29/2021MANO,
357 190262 Engineer Structural 3 1Lake Charles, LA$53.39 to $66.74 DOE12 months03/29/2021ENGO,
358 190266 Mechanical Technician 2 2Redondo Beach, CA$14.14 to $17.67 DOE12 months03/29/2021MANO,
359 190267 Manufacturing Technician 1Alpharetta, GA$23 to $27.00 DOE5 months03/29/2021MANO,
360 190271 Manufacturing Planner 3 7Mesa, AZ$DOE9 Months03/29/2021MANCOV,
361 190273 EHS Project Coordinator 1Carlsbad, CAUp to $22.50 DOE6 mos03/29/2021SCIO,
362 190275 Aircraft Electrician 1 7Saint Augustine, FL$16.28 to $20.35 DOE12 months03/29/2021MANO,
363 190276 Instrument Technician 1Torrance, CA$30 to $36.00 DOE5 months03/29/2021MANO, OM
364 190278 Machine Operator I 1Ontario, CA$DOE6 months03/29/2021MANO,
365 190279 Equipment Maintenance Tech 1Tempe, AZ$18 to $25.00 DOE12 months03/29/2021MANO, OM
366 190280 Administrative Assistant B 1Williamsport, PAUp to $16.00 DOE6 months03/29/2021ADMO,
367 190239 Aerothermal Fluids Engineer 5Canoga Park, CA$DOE6 months03/26/2021ENGO, OM
368 190240 Buyer 1Redmond, WA$24 to $33.50 DOE7 months03/26/2021PROO,
369 190242 Design Engineer IV 1Redmond, WA$DOE4 months03/26/2021ENGO,
370 190243 Administrator 1Swedesboro, NJ$DOE2 mos03/26/2021PROHSM,
371 190244 Scientist I 1Princeton, NJUp to $37.51 DOE7 mos03/26/2021SCIO,
372 190245 QC Lab Technciian 1Chester, SC$DOE6 months03/26/2021SCIO,
373 190247 Manufacturing Engineer 3 2San Antonio, TX$DOE6 Months03/26/2021MANHSM,
374 190250 Operations Manager 1Carson, CA$DOEDirect03/26/2021ENGO,
375 190251 Expeditor I 5Cypress, CA$DOE3 months03/26/2021GENO,
376 190252 FPGA Design Engineer 1Salt Lake City, UTUp to $78.59 DOE7 months03/26/2021ENGO, S
377 190204 Associate Buyer 1Arlington, TXUp to $20.00 DOE12 months03/25/2021ADMO,
378 190206 Accounting Compliance Analyst 1Orlando, FL$28 to $34.00 DOE12 months03/25/2021ADMO,
379 190212 Assembler A 1Folsom, CA$16 to $18.00 DOE4 months03/25/2021MANO,
380 190213 Material Handler 1Bingen, WA$DOE12 Months03/25/2021GENO,
381 190215 Desktop Support Technician 1Londonderry, NHUp to $26.00 DOE12 months03/25/2021ITO,
382 190217 Manufacturing Technician 1Grand Island, NYUp to $16.50 DOE3 mos03/25/2021MANO,
383 190218 Manufacturing Technician I, Finishing 1Grand Island, NYUp to $15.00 DOE4 mos03/25/2021MANO,
384 190222 Senior Mechanical Designer 1San Leandro, CA$50 to $65.00 DOE12 months03/25/2021ENGO,
385 190224 Design Engineer III 1Redmond, WA$DOE4 months03/25/2021ENGO,
386 190225 Aircraft Sheet Metal Technician 3 10Lake Charles, LA$20.56 to $29.38 DOE12 months03/25/2021MANO,
387 190226 Sustaining Engineer IV 2Acton, MAUp to $62.50 DOE 03/25/2021ENGO,
388 190227 Desktop Support Technician 1Wilmington, MAUp to $26.00 DOE12 months03/25/2021ITO,
389 190230 Inspector 1Petaluma, CAUp to $22.55 DOE12 months03/25/2021SCIO,
390 190232 Inspector 1Petaluma, CAUp to $23.58 DOE12 months03/25/2021SCIO,
391 190233 Product Repair/Mod Tech C 2Lemoore, CA$DOE12 Months03/25/2021MANO, S
392 190234 Lab Support Technician 1Seattle, WAUp to $20.25 DOE3 months03/25/2021SCIO,
393 190235 Assembler 1Franklin, MAUp to $18.00 DOE11 months03/25/2021MANO,
394 190237 Assembler 1Franklin, MAUp to $18.00 DOE11 months03/25/2021GENO,
395 190178 Staff Scientist 1South San Francisco, CAUp to $45.00 DOE5 mos03/24/2021SCIO,
396 190179 Batch Record Reviewer 1Frederick, MD$DOE12 mos03/24/2021PROO,
397 190180 Scientist I 1Frederick, MD$DOE8 mos03/24/2021SCIHSM,
398 190182 Treasury Analyst 1Rancho Cordova, CA$DOE7-8 months03/24/2021PROO,
399 190183 Tester 1Tempe, AZUp to $15.00 DOE12 months03/24/2021MANO,
400 190184 Test Technician 1Huntsville, ,AL$DOE12 months03/24/2021MANO, OM
401 190186 Engine Design Engineer III 1Canoga Park, ,CA$DOE9 months03/24/2021ENGO, OM
402 190187 Project Manager 1Sunnvale, CA$DOE15 months03/24/2021PROO, OM
403 190189 Aero Thermal Analyst 5Huntsville, AL$DOE6 months03/24/2021ENGO, OM
404 190190 Aero Thermal Analyst 5Jupiter, FL$DOE6 months03/24/2021ENGO, OM
405 190193 Creo Product Definition Designer III 1Huntsville, AL$DOE6 months03/24/2021ENGO,
406 190194 Electrical Design and Analysis Engineer 4 9Hazelwood, MO$DOE12 Months03/24/2021ENGO,
407 190195 Assembler 1Asheville, NCUp to $15.00 DOE12 mos03/24/2021GENO,
408 190197 Quality Control Inspector 20San Antonio, TX$DOE6 Months03/24/2021MANO,
409 190199 Medical Device Program Manager 1Remote, RMT$38 to $40.00 DOE6 Months03/24/2021PROO,
410 190201 Accountant 2 1Minnetonka, MN$19.74 to $24.68 DOE6 months03/24/2021PROO,
411 190146 Technical Support Case Manager 1Skaneateles, NY$DOE 03/23/2021ITO,
412 190148 Navigation and Controls Engineer 1Orlando, FL$DOEDirect03/23/2021ENGO, OM
413 190151 Scientist I 1St. Louis, MOUp to $25.00 DOE8 mos03/23/2021SCIO,
414 190152 Manufacturing Operator 1Pleasanton, CAUp to $20.00 DOE12 mos03/23/2021MANHSM,
415 190153 Electronics Technician III 4Orlando, Fl$DOE12 months03/23/2021MANO, S
416 190154 Electronics Technician III 1Orlando, FL$DOE12 months03/23/2021MANHSM, OM
417 190155 Systems Administrator 1 1Dulles, VA$37.22 to $46.52 DOE9 months03/23/2021ITHSM,
418 190156 Nurse Employee Health 2 2Palmdale, CA$39 to $46.41 DOE24 months03/23/2021PROO,
419 190163 Aero Thermal Analyst 5Canoga Park, CA$DOE6 months03/23/2021ENGO,
420 190165 Engine System Design Engineer IV 2Canoga Park, CA$DOE9 months03/23/2021ENGO, OM
421 190167 Product Support Electrical Engineer 1Alpharetta, GA$DOE3 months03/23/2021ENGO,
422 190168 Desktop Support Technician 1Rochester, NYUp to $28.00 DOE12 months03/23/2021ITO,
423 190173 Validation Specialist 1Austin, TXUp to $27.50 DOE12 mos03/23/2021SCIO,
424 190174 Project Manager 3 1Burbank, CA$83 to $83.04 DOE6 Months03/23/2021PROHSM,
425 190175 Business Analyst - Specialist - Level 3 1Burbank, CA$75 to $75.86 DOE 03/23/2021PROO,
426 190122 Engineering - Project Manager 1Carlsbad, CAUp to $64.97 DOE9 mos03/22/2021ENGO,
427 190123 Engineering - Project Manager 1Carlsbad, CA$DOE9 mos03/22/2021ENGO,
428 190124 Mechanical Engineer I 1Carlsbad, CA$DOE7 mos03/22/2021ENGO,
429 190125 Software Engineer 2 4Hazelwood, MO$DOE12 months03/22/2021ENGO,
430 190126 Sys Integration/ Test Engineer III 1Chelmsford, MA$DOE6 months03/22/2021ITO,
431 190129 Designer 2Aston, PA$34 to $35.00 DOE8 months03/22/2021ENGO,
432 190137 Structural & Payload Design Engineer 3 8Oklahoma City, OK$DOE12 Months03/22/2021ENGO, OM
433 190139 Cyber Security Engineer 5Camden, NJUp to $60.65 DOE12 months03/22/2021ITO, S
434 190141 Engineer Industrial 3 2New Town, ND$49.37 to $61.71 DOE6 months03/22/2021ENGO,
435 190143 Sr Program Manager 1St.Louis, MOUp to $74.97 DOE6 months03/22/2021PROO,
436 190109 Packaging Technician 2 1Indianapolis, INUp to $15.13 DOE12 mos03/19/2021GENO,
437 190110 Packaging Technician 2 1Indianapolis, INUp to $15.13 DOE12 mos03/19/2021GENO,
438 190111 Lab Technician 1Torrance, CA$DOE3 months03/19/2021SCIO,
439 190113 Inventory Control Clerk 1Albuquerque, NMUp to $18.75 DOE12 mos03/19/2021GENO,
440 190114 Assembler 2Shoreview, MN$15 to $16.00 DOE12 months03/19/2021MANO,
441 190115 Network Engineer 1San Diego, CA$DOE6 months03/19/2021ITO, OM
442 190093 Accountant 1Wauwatosa, WI$DOE6 months03/18/2021ADMO,
443 190094 Designer 2 - Machinery 1Newport News, VA$23.75 to $31.25 DOE1 year03/18/2021ENGO,
444 190097 Laser Assembler 1Orlando, FL$24 to $28.00 DOE8 months03/18/2021MANO,
445 190099 Tech Field Ops Mech II 1Huntsville, AL$DOE12 months03/18/2021MANO, OM
446 190102 Worker's Compensation Representative 2 16Newport News, VAUp to $36.2 DOE6 months03/18/2021ADMO,
447 190105 Test Technician 3Mason, OHUp to $26.50 DOE12 months03/18/2021ENGO,
448 190108 Technical Support II 5Skaneateles, NY$DOE 03/18/2021ITO,
449 190066 Production Supervisor 1Lenexa, KSUp to $30.00 DOE6 mos03/17/2021ADMO,
450 190067 Quality Inspector 1Santa Rosa, CA$21 to $23.00 DOE9 months03/17/2021MANO, OM
451 190068 Clerk 1Fort Worth, TX$DOE2 months03/17/2021PROO,
452 190070 Scientist II 1Princeton, NJ$DOE6 mos03/17/2021SCIHSM,
453 190071 Facilities Coordinator 1 1San Diego, CA$13.82 to $17.28 DOE12 months03/17/2021MANO,
454 190072 Scientist I 1Cincinnati, OH$DOE12 mos03/17/2021SCIO,
455 190074 Scientist I 1Cincinnati, OH$DOE12 mos03/17/2021SCIO,
456 190081 Product Review Engineer 5 2North Charleston, SC$DOE8 Months03/17/2021ENGO,
457 190084 Scientist III 1Frederick, MD$DOE9 mos03/17/2021SCIHSM,
458 190088 Assembler 1Alpharetta, GA$20 to $23.00 DOE9 months03/17/2021MANO,
459 190090 Manufacturing Technician B 1Alpharetta, GA$18 to $21.00 DOE9 months03/17/2021MANO,
460 190040 Electrical Assembler B 1Rochester, NYUp to $16.00 DOE12 months03/16/2021MANO,
461 190042 Electrical Technician 31Mesa, AZ$DOE12 Months03/16/2021MANO,
462 190043 Batch Record Reviewer 1Frederick, MD$DOE12 months03/16/2021GENHSM,
463 190046 Batch Record Reviewer 1Frederick, MD$DOE12 mos03/16/2021MANO,
464 190047 Product Acceptance Specialist D 15San Antonio, TX$DOE12 Months03/16/2021MANHSM,
465 190051 Warehouse Shipper 1Batesville, IN$DOE12 months03/16/2021GENO,
466 190052 Incoming Raw Material Inspector 1Frederick, MD$DOE12 mos03/16/2021MANO,
467 190053 Incoming Raw Material Inspector 1Frederick, MDUp to $20.00 DOE12 mos03/16/2021MANO,
468 190054 Incoming Raw Material Inspector 1Frederick, MD$DOE12 mos03/16/2021MANO,
469 190055 Packaging Technician 2 1Indianapolis, INUp to $14.49 DOE12 mos03/16/2021GENO,
470 190056 Manufacturing Technician 2 3Goleta, CAUp to $26.42 DOE3 months03/16/2021MANO, OM
471 190059 Aircraft Fuel Cell Technician 3 16Lake Charles, LA$27.68 to $34.60 DOE6 months03/16/2021MANO,
472 190062 Procurement Specialist 1Plano, TX$25 to $35.00 DOE6 months03/16/2021ADMO, OM
473 190014 Assembler 10Cypress, CAUp to $14.00 DOE5 months03/15/2021MANO,
474 190020 FPGA Engineer 1Orlando, FL$DOE12 months03/15/2021ITO, S
475 190022 Scientist I 1Princeton, NJ$DOE6 mos03/15/2021SCIO,
476 190031 Design and Analysis Engineer 4 1Kent, WA$DOE12 Months03/15/2021ENGO, TS
477 190032 Design and Analysis Engineer 4 1Kent, WA$DOE12 Months03/15/2021ENGO, TS
478 190035 Design and Analysis Engineer 3 1Kent, WA$DOE12 Months03/15/2021ENGO, TS
479 190000 Customer Service Representative 1Tewksbury, MAUp to $20.00 DOE6 mos03/12/2021PROO,
480 190002 International Customer Service Account Specialist 1King of Prussia, PA$30.68 to $30.86 DOE7 months03/12/2021PROO,
481 190010 Supply Chain Logistics and Execution Specialis 1King of Prussia, PAUp to $65.57 DOE6 months03/12/2021PROO,
482 190012 Computer/ Technical Assistant 1Huntsville, AL$DOE6 months03/12/2021MANO,
483 189949 SAP P2P Specialist 1King of Prussia, PA$58.29 to $65.57 DOE12 months03/11/2021PROO,
484 189950 Software Engineer 1San Diego, CAUp to $40.00 DOE6 months03/11/2021ITO, OM
485 189952 Technical Writer 1St. Louis, MO$DOE6 mos03/11/2021ENGO,
486 189955 Warehouse Associate 1Lugoff, SC$DOE12 months03/11/2021MANO,
487 189958 Engineer Hardware 3 1Manhattan Beach, CA$61.82 to $77.28 DOE12 months03/11/2021ENGO,
488 189959 Warehouse Associate 1Milwaukee, WI$DOE12 months03/11/2021MANO,
489 189962 Engineer Digital 3 1Manhattan Beach, CA$93.51 to $116.89 DOE12 months03/11/2021ENGO,
490 189966 Engineer Mechanical 2 1Chandler, AZ$35.89 to $44.87 DOE6 months03/11/2021ENGO, S
491 189967 Manufacturing Engineer II 1Archbald, PA$DOE10 months03/11/2021ENGO,
492 189973 Aircraft Structures Mechanic 2 11Saint Augustine, FLUp to $26.21 DOE12 months03/11/2021MANO,
493 189978 Human Resource Specialist 1Frederick, MDUp to $22.00 DOE12 mos03/11/2021PROO,
494 189980 Aircraft Structures Mechanic 1 12Saint Augustine, FLUp to $18.14 DOE12 months03/11/2021MANO,
495 189983 Machinist 6Mesa, AZ$DOE12 Months03/11/2021MANHSM,
496 189987 Assember C 1Gardena, CA$17 to $19.00 DOE12 months03/11/2021MANO,
497 189988 Embedded Firmware Engineer 4 1Hood River, OR$DOE12 Months03/11/2021ITO,
498 189989 Microelectronic Technician 1 3Manhattan Beach, CA$DOE12 months03/11/2021MANO,
499 189992 Project Engineer 1Hood River, OR$DOE12 Months03/11/2021ENGO,
500 189993 Manufacturing Support Coordinator 1Carlsbad, CAUp to $15.00 DOE12 mo03/11/2021MANO,
501 189994 Aircraft Electrician 100San Antonio, TX$DOE6 Months03/11/2021MANHSM,
502 189932 Assembler 3Clearwater, FL$DOE12 months03/10/2021MANO,
503 189933 Test Technician 1Franklin, MAUp to $24.00 DOE12 months03/10/2021MANO,
504 189934 Tube Assembly Processor 1Tempe, AZUp to $15.00 DOE12 Months03/10/2021MANO,
505 189935 Buyer 1Menlo Park, CA$25 to $30.00 DOE12 Months03/10/2021PROO,
506 189936 Sheet Metal Mechanic 8Greenville, SC$DOE12 months03/10/2021MANO,
507 189944 Packaging Technician 1rockford, ILUp to $15.50 DOE6 weeks03/10/2021GENO,
508 189945 Sr Information Security Analyst 1Kansas City, MO$DOE11 months03/10/2021ITO,
509 189923 Cash Application Specialist 1Pittsburgh, PAUp to $19.00 DOE12 mos03/09/2021PROO,
510 189924 Inventory Control Coordinator 1Detroit, MI$DOE6 mos03/09/2021MANO,
511 189909 Assembler 1Tewksbury, MA$DOE12 mos03/08/2021GENO,
512 189917 QC Inspector B 1Ayer, MA$20 to $25.00 DOE3 months03/08/2021MANO,
513 189919 Scientist II 1South San Francisco, CAUp to $35.00 DOE12 mos03/08/2021SCIO,
514 189892 Manufacturing Technician I 1Tewksbury, MA$DOE12 mos03/05/2021MANO,
515 189894 Training Device Technician 2 2Hazelwood, MO$DOE12 Months03/05/2021MANO, OM
516 189895 Assembly Operator 1Teme, AZUp to $14.50 DOE12 months03/05/2021MANO,
517 189897 Part Time Loader 1Northampton, MA$14 to $16.50 DOE1.5 Moths03/05/2021GENO,
518 189899 Buyer 1Bristol, PA$27 to $32.00 DOE9 months03/05/2021MANO, OM
519 189900 Electrical Engineer 1Northampton, MAUp to $60.00 DOE9 months03/05/2021ENGO, OM
520 189904 Integrated Planner& Scheduler Specialist 4 1Seattle, WA$DOE12 Months03/05/2021PROO, TS
521 189906 Software Engineer 5 3Kent, WA$DOE12 Months03/05/2021ITO, TS
522 189869 Production/Inventory Coordinator A 2North Charleston, SC$DOE9 months03/04/2021GENO,
523 189871 Clinical Supply Chain Coordinator 1Bohemia, NYUp to $25.49 DOE6 mos03/04/2021PROO,
524 189879 QA Batch Release Clerk 1High Point, NCUp to $15.00 DOE3 mos03/04/2021MANO,
525 189883 Production Test Technician 1 2San Diego, CA$13.46 to $16.82 DOE6 months03/04/2021MANO,
526 189848 UX/UI Hybrid Designer 1Seattle, WA$DOE12 Months03/03/2021PROO,
527 189856 Manufacturing Technician I 1Grand Island, NYUp to $16.50 DOE3 mos03/03/2021MANO,
528 189857 Resin Technician 1King of Prussia, PA$DOE7 months03/03/2021MANO,
529 189858 Shipping Clerk 1Memphis, TNUp to $21.67 DOE9 months03/03/2021ADMO,
530 189861 Word Processor I 1Lexington, KY$DOE6 months03/03/2021ADMO, OM
531 189862 Product Repair/Mod Technician C 1Eglin AFB, FL$DOE12 Months03/03/2021MANO, S
532 189863 Product Repair/Mod Technician C 4Eglin AFB, FL$DOE12 Months03/03/2021MANO, S
533 189828 Systems Engineer IV 1Milwaukee, WI$50.78 to $78.13 DOE12 mos03/02/2021ENGO,
534 189831 Quality Inspector 1Chelmsford, MA$DOE3 months03/02/2021MANO, OM
535 189835 Accountant 1 1Falls Church, VA$55.1 to $59.04 DOE12 months03/02/2021PROO, TS
536 189837 Exhaust Processor 1Tempe, AZUp to $16.00 DOE12 months03/02/2021MANO, CON
537 189840 Cost Estimating Analyst 3 1Redondo Beach, CA$33.15 to $41.43 DOE12 months03/02/2021PROO,
538 189781 Help Desk Analyst 1Carson, CA$25 to $30.00 DOE3 months03/01/2021ITO,
539 189783 Sterility Assurance Technician 1Rochester, NYUp to $25.00 DOE9 mos03/01/2021MANO,
540 189788 Material Handler 1Miami, FLUp to $14.00 DOE3 mos03/01/2021GENO,
541 189793 Media Production Analyst 2 2Redondo Beach, CA$28.08 to $35.10 DOE24 months03/01/2021ITO,
542 189794 Automation Technician 1Fairport, NYUp to $27.99 DOE12 mos03/01/2021MANO,
543 189805 Production Planning and Scheduler 3 1Redondo Beach, CA$22.9 to $28.62 DOE12 months03/01/2021PROO,
544 189806 Electrical Inspector 2Orlando, Fl$DOE12 months03/01/2021MANO,
545 189810 Engineer Mechanical 2 1Manhattan Beach, CA$41.56 to $51.95 DOE6 months03/01/2021ENGO,
546 189813 Avionics Technician 3 2Lake Charles, LA$31.89 to $39.87 DOE6 months03/01/2021MANCOV,
547 189814 Manufacturing Engineer 4 1North Charleston, SC$DOE9.5 Months03/01/2021ENGO,
548 189815 Manufacturing Engineer 3 7Charleston, SC$DOE10 Months03/01/2021ENGHSM,
549 189817 Manufacturing Planner 3 1North Charleston, SC$DOE10 Months03/01/2021ENGHSM,
550 189818 Tool Designer 3 5North Charleston, SC$DOE9 Months03/01/2021ENGO,
551 189819 Tool Engineer 3 5North Charleston, SC$DOE10 Months03/01/2021ENGHSM,
552 189757 Scientist II 1South San Francisco, CAUp to $35.00 DOE11 mos02/26/2021SCIO,
553 189765 Assembly Operator 1Tempe, AZUp to $14.50 DOE12 months02/26/2021MANO,
554 189749 Aircraft Sheet Metal Technician 2 5Lake Charles, LAUp to $26.50 DOE12 months02/25/2021MANO,
555 189751 Space Systems Signal Intelligence (SIGINT) Systems Engineer 5 3El Segundo, CA$DOE12 Months02/25/2021ENGO, TS
556 189755 Engineering Technician 2 1Chandler, AZ$17.53 to $21.92 DOE12 months02/25/2021ITO,
557 189756 Engineering Technician 2 1Chandler, AZ$17.53 to $21.92 DOE12 months02/25/2021ITO,
558 189698 Lab Assistant 1South San Francisco, CAUp to $28.85 DOE12 mos02/24/2021MANO,
559 189709 Information Systems Security Engineer 1Arlington, TXUp to $70.00 DOE9 months02/24/2021ITO, OM
560 189711 Sr C++ Software Engineer 1Salt Lake City, UT$DOE12 months02/24/2021ITO, S
561 189713 Sr Embedded Software Engineer 1Salt Lake City, UTUp to $110.00 DOE6 months02/24/2021ITO, OM
562 189715 Planning Coordinator 1Alachua, FLUp to $20.00 DOE2 mos02/24/2021MANO,
563 189719 Production Test Technician 2 2San Diego, CA$19.29 to $24.12 DOE6 months02/24/2021MANO,
564 189729 Manufacturing Technician 2 1Austin, TX$DOE12 months02/24/2021MANO,
565 189731 Systems Engineer 1Camden, NJUp to $41.73 DOE12 months02/24/2021ENGO, S
566 189733 Network Planning Engineer 1Camden, NJUp to $60.65 DOE12 months02/24/2021ITO, S
567 189680 Sr Staff Scientist - Organic Polymer Surface Chemistry 1Bedford, MA$DOE7 mos02/23/2021ENGO,
568 189683 Scientist III, Cell Biology 1Carlsbad, CA$DOE9 mos02/23/2021SCIO,
569 189686 Systems Administrator 1King of Prussia, PA$DOE6 months02/23/2021ITO, TS
570 189657 Software Engineering Team Lead 2Camden, NJ$50 to $100.00 DOE6 months02/22/2021ITO, S
571 189671 Composite Technician 6Mesa, AZ$DOE10 Months02/22/2021MANO,
572 189630 Aircraft Structures Mechanic 2 1Jacksonville, FL$15.63 to $26.31 DOE12 months02/19/2021MANHSM,
573 189631 Software Engineer 5 1Kent, WA$DOE12 Months02/19/2021ITO, TS
574 189634 Systems Engineer 4 1Kent, WA$DOE12 Months02/19/2021ENGO, TS
575 189638 Systems Engineer 5 1Kent, WA$DOE12 months02/19/2021ENGO, TS
576 189643 Electrical Tester 1Tempe, AZUp to $15.00 DOE12 months02/19/2021MANO,
577 189649 Manufacturing Technician II 1Austin, TXUp to $18.00 DOE5 months02/19/2021MANO,
578 189603 Product Repair/Mod Technician C 1New Orleans, LA$DOE12 Months02/18/2021MANO, S
579 189604 Product Repair/Mod Technician C 1New Orleans, LA$DOE12 Months02/18/2021MANO, S
580 189605 Systems Engineer 1Canoga Park, AC$DOE6 months02/18/2021ENGO,
581 189606 Hardware Systems Engineer 1Canoga Park, CA$DOE6 months02/18/2021ENGO, S
582 189607 Manufacturing/Repair Technician 1Tewksbury, MAUp to $19.00 DOE12 months02/18/2021MANO,
583 189608 Aircraft System Mechanic 3 6Lake Charles, LA$DOE6 months02/18/2021MANO,
584 189610 Final Assembly Inspector 2 2Beltsville, MD$18.94 to $23.67 DOE12 months02/18/2021MANO,
585 189611 Scientist II 1West Hills, CAUp to $29.99 DOE12 months02/18/2021SCIO,
586 189619 Manufacturing Technician I 1Grand Island, NYUp to $16.50 DOE3 months02/18/2021MANO,
587 189620 Manufacturing Technician I 1Grand Island, NYUp to $16.50 DOE3 months02/18/2021MANO,
588 189583 Assembler 4Marion, MA$DOE12 months02/17/2021MANO,
589 189590 QC Bioassay Scientist I 1St. Louis, MOUp to $26.99 DOE6 months02/17/2021SCIO,
590 189550 Assembler 3Clearwater, FL$DOE12 months02/16/2021MANO,
591 189553 Power Electronics Engineer 1Northampton, MAUp to $68.00 DOE12 months02/16/2021ENGO,
592 189555 HR Systems Analyst III 1Remote, MD$28 to $33.00 DOE18 months02/16/2021ITO,
593 189558 QC Scientist I 1St. Louis, MO$DOE5 mos02/16/2021SCIO,
594 189562 Assembler 17Skaneateles, NY$DOE12 months02/16/2021MANO,
595 189570 Software Engineer 3 1Kent, WA$DOE6 Months02/16/2021ITO, TS
596 189572 Engineer Electrical 2 1Chandler, AZ$31.71 to $39.63 DOE12 months02/16/2021ENGO,
597 189513 Sr Software Engineer 2Camden, NJUp to $62.20 DOE5 months02/15/2021ITO, S
598 189520 Scientist III 1South San Francisco, Up to $45.00 DOE12 months02/15/2021SCIO,
599 189521 Scientist III 1South San Francisco, CAUp to $45.00 DOE12 months02/15/2021SCIO,
600 189502 Buyer/Procurement Agent 3El Segundo, CAUp to $25.00 DOE8 Months02/12/2021PROO,
601 189507 Software Engineer 3 1Kent, WA$DOE10 Months02/12/2021ITO, TS
602 189510 Software Engineer 1Littleton/ Waterton, CO$DOE6 months02/12/2021ENGHSM,
603 189460 Systems Engineer (Hypersonic) 3Jupiter, FL$DOE12 months02/11/2021ENGO, S
604 189461 Assembly Operator 1Tempe. AZ, Up to $15.00 DOE5 months02/11/2021MANO,
605 189465 Assembler (2) 2Charleston, SC$13.82 to $15.93 DOE12 months02/11/2021MANO,
606 189469 Systems Engineer 2Arlington, TXUp to $60.00 DOE9 months02/11/2021ENGO, S
607 189476 DSP Software Engineer 1Salt Lake City, UT$DOE12 months02/11/2021ENGO, OM
608 189481 Engineer Electrical 2 1Chandler, AZ$31.71 to $55.38 DOE12 months02/11/2021ENGO, S
609 189482 CAD Operator 3 5Chandler, AZ$15.41 to $34.64 DOE12 months02/11/2021ITO, S
610 189483 Configuration Analyst 3 1Redondo Beach, CA$84.59 to $105.74 DOE18 months02/11/2021ITO, TS
611 189484 Assembler 3 1Commerce, CA$14.67 to $18.34 DOE6 months02/11/2021MANO,
612 189486 Engineer Digital 3 3Redondo Beach, CA$93.51 to $116.89 DOE12 months02/11/2021ENGO, S
613 189409 Operator II, POROS Manufacturing 1Bedford, MAUp to $26.40 DOE12 mos02/10/2021MANO,
614 189411 Operator II, POROS Manufacturing 1Bedford, MAUp to $26.39 DOE12 mos02/10/2021MANO,
615 189416 Wire Design & Install Engineer 4 7San Antonio, TX$DOE6 months02/10/2021ENGO, S
616 189417 Machine Operator 15Sarasota, FLUp to $13.00 DOE4 months02/10/2021MANO,
617 189426 Wire Design & Install Engineer 3 7San Antonio, TX$DOE6 months02/10/2021ENGO, S
618 189436 Configuration Analyst 2 1Redondo Beach, CA$66.59 to $83.24 DOE18 months02/10/2021ITO, TS
619 189448 Test Technician 7College Park, GA$15 to $18.00 DOE6 months02/10/2021MANO,
620 189367 Quality Specialist I 1Fremont, CA$DOE6 mos02/09/2021MANO,
621 189369 Composite Fabricator I 2Ashburn, VAUp to $26.00 DOE12 months02/09/2021MANO, OM
622 189370 Hardware Systems Engineer (Hypersonics) 1Jupiter, FL$DOE6 months02/09/2021ENGO, S
623 189372 Front Desk Receptionist B 2Miami, FL$DOE6 Months02/09/2021ADMO,
624 189373 Aircraft Assembly Technician-Vertical Lift 10Mesa, AZ$DOE12 Months02/09/2021MANHSM,
625 189374 Aircraft Structural Assembler-Vertical Lift 10Mesa, AZ$DOE12 Months02/09/2021MANO,
626 189376 Aircraft Structures Mechanic 3 15Saint Augustine, FLUp to $33.00 DOE12 months02/09/2021MANO,
627 189396 Manufacturing Technician 2 4Beltsville, MD$23 to $25.00 DOE12 months02/09/2021MANO,
628 189404 Computer Systems Analyst 3 1Linthicum Heights, MD$50.75 to $59.21 DOE6 months02/09/2021ITO, S
629 189407 Engineering Technician 2 1Chandler, AZ$17.53 to $21.92 DOE12 months02/09/2021ITO,
630 189326 Manufacturing Planner 3 20San Antonio, TX$DOE6 months02/08/2021ENGHSM,
631 189328 Manufacturing Operator 2 1Fremont, CAUp to $17.99 DOE12 mos02/08/2021MANO,
632 189329 Manufacturing Planner 3 4San Antonio, TX$DOE6 months02/08/2021ENGHSM,
633 189336 Administrative Assistant 1Cypress, CAUp to $17.00 DOE3 months02/08/2021ADMO,
634 189337 General Inspector 2Archbald, PAUp to $20.07 DOE6 months02/08/2021MANO,
635 189338 Document Control Analyst 1Tewksbury, MAUp to $37.49 DOE3 mos02/08/2021PROO,
636 189363 QA Engineer 1Austin, TXUp to $26.00 DOE12 months02/08/2021ENGO,
637 189322 Lab Technician 1Santa Clara, CAUp to $23.09 DOE12 months02/05/2021MANO,
638 189325 Scientist 1 R & D 1Santa Clara, CAUp to $26.00 DOE8 mos02/05/2021ENGHSM,
639 189293 Manufacturing Technician 2 4Beltsville, MD$23 to $25.00 DOE12 months02/04/2021MANO,
640 189294 Exhaust Processor 1Tempe, AZUp to $16.00 DOE11 months02/04/2021MANO, CON
641 189297 Exhaust Processor 1Tempe, AZUp to $16.00 DOE11 Months02/04/2021MANO, CON
642 189300 Exhaust Processor 1Tempe, AZUp to $16.00 DOE 02/04/2021MANO, CON
643 189303 Composite Technician 6Littleton/ Waterton, CO$DOE6 months02/04/2021MANHSM,
644 189238 Electrical Engineer 1Northampton, MAUp to $60.00 DOE10 months02/03/2021ENGO, OM
645 189241 Information System Administrator Generalist 3 1Lebanon, VA$42.44 to $53.05 DOE18 months02/03/2021ITO, S
646 189248 Tube Assembly Procesor 1Tempe, AZUp to $15.00 DOE12 month02/03/2021MANO, OM
647 189252 Photo Cathode Processor 1Tempe, AZUp to $15.00 DOE12 months02/03/2021MANO, OM
648 189253 Software Engineer 1Camden, NJUp to $62.20 DOE6 Months02/03/2021ITO,
649 189265 Production Test Technician 2 1Dulles, VA$19.29 to $24.12 DOE9 months02/03/2021MANO,
650 189267 Procurement Agent 2 2Mesa, AZ$DOE12 Months02/03/2021PROO,
651 189210 Material Coordinator 7San Antonio, TX$DOE6 months02/02/2021MANHSM,
652 189214 Manufacturing Technician 2 1Beltsville, MDUp to $23.00 DOE12 months02/02/2021MANO,
653 189216 Product Repair/Mod Technician C 1Klamath Falls, OR$DOE6 Months02/02/2021MANO, I
654 189226 Project Engineer 1Jupiter, FL$DOE10 Months02/02/2021ENGO, S
655 189158 Sr Test Technician 1San Jose, CAUp to $25.00 DOE12 mos02/01/2021MANO,
656 189178 Wire Harness Assembler 2 2Broken Arrow, OKUp to $18.00 DOE10 Months02/01/2021MANO, S
657 189185 Engineer Electronics 2 2Baltimore, MD$35.04 to $43.80 DOE12 months02/01/2021ENGO, I
658 189186 Software Engineer 1Orlando, FLUp to $80.00 DOE12 Months02/01/2021ITO, OM
659 189196 Sr Electrical Engineer FPGA ASIC Designer 1Camden, NJUp to $76.62 DOE3 months02/01/2021ENGO, S
660 189200 Senior Auditor - Internal Controls 1Poway, CA$50 to $65.00 DOE3 Months02/01/2021PROO,
661 189202 Sr Engineer, Analysis/Systems Engineering 2Jupiter, FL$DOE5-6 months02/01/2021ENGO, S
662 189208 Logistics Management Analyst 1Tampa, FLUp to $30.00 DOE12 months02/01/2021PROHSM, S
663 189145 Industrial Engineer 5 5Berkeley, MO$DOE6 Months01/29/2021ENGO, OM
664 189146 Industrial Engineer 4 5Berkeley, MO$DOE6 Months01/29/2021ENGO, OM
665 189150 Scientist III 1Austin, TX$DOE12 Months01/29/2021SCIO,
666 189152 Scientist III 1Austin, TX$DOE11 Months01/29/2021SCIO,
667 189154 Scientist II 1Austin, TXUp to $27.00 DOE12 Months01/29/2021SCIO,
668 189100 Technical Writer 1Carlsbad, CAUp to $39.99 DOE5 mos01/28/2021ITO,
669 189101 RF Engineer 1Orlando, FL$DOEDirect01/28/2021ENGO, OM
670 189107 Maintenance Technician 1 4Commerce, CA$14.51 to $18.14 DOE3 months01/28/2021MANO,
671 189108 Assembly Tech II 1Broken Arrow, OKUp to $18.00 DOE3 Months01/28/2021MANO, S
672 189111 Assembler 2Salt Lake City, UTUp to $18.00 DOE12 Months01/28/2021MANO,
673 189112 Technical Editor and Writer 3 2Redondo Beach, CA$43.07 to $53.84 DOE24 months01/28/2021PROHSM,
674 189113 Assembler 2Salt Lake City, UTUp to $18.00 DOE12 Months01/28/2021MANO,
675 189115 Treasury & Risk Analyst 5 1Renton, WA$DOE12 Months01/28/2021PROO,
676 189123 Sr Network Engineer 1Canoga Park, CA$DOE3 Months01/28/2021ITO, S
677 189124 Assembler 3 2Dulles, VA$14.67 to $18.34 DOE9 months01/28/2021MANO,
678 189126 Production Operator 2 1Dulles, VA$13.2 to $16.50 DOE9 months01/28/2021MANO,
679 189077 Machine Operator 4Sarasota, FLUp to $13.00 DOE8 months01/27/2021MANO,
680 189080 Assembler A 3Sylmar, CA$DOE9 months01/27/2021MANHSM,
681 189081 Cable Assembler 6Clearwater, FL$DOE12 Months01/27/2021MANO,
682 189049 Manufacturing Technician 2 3Goleta, CA$DOE12 months01/26/2021MANHSM,
683 189051 Wirers-Electromechanical Assembler 4Archbald, PAUp to $24.00 DOE9 Months01/26/2021MANO,
684 189054 Engineer Digital 3 3Redondo Beach, CA$DOE12 months01/26/2021ENGO,
685 189056 Electrophysics Engineer/Scientist 4 1Kent, WA$DOE12 Months01/26/2021ENGO, TS
686 189057 Systems Engineer 3 1Kent, WA$DOE6 Months01/26/2021ENGO, TS
687 189058 Software Engineer 3 1Kent, WA$DOE6 Months01/26/2021ITO, TS
688 189059 Software Engineer 4 1Kent, W$DOE6 Months01/26/2021ITO, TS
689 189061 Software Engineer 4 1Kent, WA$DOE6 Months01/26/2021ITO, TS
690 189034 Mechanical Technician 3 3Chandler, AZ$DOE12 months01/25/2021MANO, S
691 189038 Security Rep Staff 1Fort Meade, MD$DOE12 Months01/25/2021PROO, TS
692 189018 Engineer Communication Systems 2 2Redondo Beach, CA$DOE12 months01/22/2021ENGO, S
693 189025 Electromechanical Engineer 1Sarasota, FL$38 to $48.00 DOE5 Months01/22/2021ENGO,
694 188991 Executive Administrative Assistant II 1Fort Bragg, NC$DOE5 Months01/21/2021ADMO, TS
695 188993 CNC Machinist 4Stuart, FLUp to $30.00 DOE6+ months01/21/2021MANO,
696 188996 Manufacturing Engineer - Cable Assemblies 1Clearwater, FL$DOE5 Months01/21/2021ENGO,
697 189002 Assembler 7Clearwater, FL$15 to $20.00 DOE11 Months01/21/2021MANO,
698 189007 Manufacturing Technician I 1Austin, TXUp to $16.00 DOE5 Months01/21/2021MANO,
699 188965 Electrical Technician 2Tinker AFB, OK$DOE12 Months01/20/2021MANO, S
700 188968 General Mechanic 1Tinker AFB, OK$DOE12 Months01/20/2021MANO, S
701 188970 Maintenance Technician 2 1Goleta, CA$17.56 to $21.95 DOE12 months01/20/2021MANO,
702 188972 Maintenance Technician 1 1Goleta, CA$14.51 to $19.56 DOE12 months01/20/2021MANO,
703 188975 Engineer Electronics 2 1Baltimore, MD$35.04 to $43.81 DOE12 months01/20/2021ENGO, S
704 188925 Product Repair/Mod Technician C 2Klamath Falls, OR$DOE12 Months01/19/2021MANO, I
705 188930 Production Planner 3Lexington, KY$DOE5 Months01/19/2021MANO, S
706 188931 Supply Chain Professional 1Lexington, KY$DOE5 Months01/19/2021MANO, S
707 188933 Buyer/Procurement Analyst 2Lexington, KYUp to $25.00 DOE5 Months01/19/2021PROO, S
708 188936 Systems Engineer 5 1Seal Beach, CA$DOE12 Months01/19/2021ENGO, TS
709 188941 Senior C++ Developer 2Camden, NJ$50 to $100.00 DOE12 Months01/19/2021ITO, S
710 188907 Scientist II 1Carlsbad, CA$DOE12 Months01/18/2021ENGO,
711 188908 Circuit Board Designer 3 1Dallas, TXUp to $60.00 DOE10 Months01/18/2021ENGHSM, OM
712 188863 Material Handler I 1Carlsbad, CAUp to $14.50 DOE9 mos01/15/2021GENO,
713 188865 Material Handler I 1Carlsbad, CAUp to $14.50 DOE9 MOS01/15/2021GENO,
714 188866 Material Handler I 1Carlsbad, CAUp to $14.50 DOE9 mos01/15/2021GENO,
715 188876 E/M Assembler B 1Anaheim, CAUp to $17.50 DOE12 Months01/15/2021MANO,
716 188842 Manufacturing Technician I 1Austin, TX$DOE12 mos01/14/2021MANO,
717 188862 Material Handler 1Carlsbad, CAUp to $14.50 DOE10 Months01/14/2021GENO,
718 188828 E/M Assembler B 7Anaheim, CAUp to $17.50 DOE12 Months01/13/2021MANO,
719 188803 Accountant 1Lexington, KY$DOE15 Months01/12/2021ADMO, S
720 188805 Cable Technician 2Orlando, FL$DOE6 Months01/12/2021MANO,
721 188806 Test Technician 2Orlando, FL$DOE12 Months01/12/2021MANHSM,
722 188789 Human Resources Assistant 3 1Irving, TX$18.67 to $23.34 DOE1 year01/11/2021ADMHSM,
723 188724 Maintenance Trainee 1Batesville, IN$17.65 to $21.65 DOE12 months01/07/2021GENO,
724 188732 System Integration/Test Engineer 1Orlando, FLUp to $80.00 DOE9 Months01/07/2021ENGO, OM
725 188739 Manufacturing Operator 1Skaneateles, NY$DOE12 months01/07/2021MANO,
726 188722 Assembler 1Pinellas Park, FL$DOE 01/06/2021MANO,
727 188671 Quality Control Inspector 3Jacksonville, FL$DOE12 months01/04/2021MANHSM, S
728 188674 Assembler 1Skaneateles, NY$DOE12 months01/04/2021MANO,
729 188680 Flight Controls Technician 1San Antonio, TX$27 to $30.00 DOE6 Months01/04/2021MANO,
730 188666 Assembler 1Milwaukee, WI$DOE12 months12/30/2020MANO,
731 188635 Aircraft Structures Mechanic II 100San Antonio, TX$DOE6 Months12/23/2020MANO,
732 188644 Technician II 1College Park, GA$15 to $17.00 DOE6 Months12/23/2020MANO,
733 188617 Product Acceptance Specialist B 100North Charleston, SC$DOE6 Months12/17/2020MANO,
734 188579 General Laborer 1Broken Arrow, OKUp to $15.00 DOE2 Months12/15/2020GENO,
735 188518 Facilities Engineer & Planning Specialist 1Canoga Park, CA$DOE12 months12/09/2020ENGO,
736 188533 Assembler/Welder 6Broken Arrow, OKUp to $23.00 DOE2 Months12/09/2020PROO, S
737 188537 Design and Analysis Engineer 5 1El Segundo, CA$DOE12 Months12/09/2020ENGO, OM
738 188486 Occupational Health Nurse 1Chantilly, VA$42 to $48.00 DOE12 months12/07/2020PROO,
739 188433 Clinical Consultant 1Remote, FL$45.7 to $49.70 DOE12 months12/03/2020PROO,
740 188399 Engineer Software 3 2Newport News, VA$39 to $51.30 DOE12 months12/01/2020ITO,
741 188400 Cloud Software Engineer 1Rockwall, TX$57 to $72.00 DOE12 Months12/01/2020ENGO, OM
742 188379 Systems Engineer 3 2Kent, WA$DOE1 Month11/25/2020ENGO, TS
743 188386 RF Test Technician 3 1Chelmsford, MAUp to $30.00 DOE6 Months11/25/2020MANO, S
744 188348 Systems Engineer 3 1Orlando, FLUp to $80.00 DOE9 Months11/24/2020ENGO, S
745 188310 Systems Engineer 5 1El Segundo, CA$DOE12 months11/20/2020ENGO, TS
746 188323 Industrial Engineer 4 6San Antonio, TX$DOE12 Months11/20/2020ENGHSM, OM
747 188284 Maintenance Mechanic 1Pinellas, FL$DOE12 Months11/19/2020MANO,
748 188292 Loader 1Grove City, OH$DOE3 weeks11/19/2020GENO,
749 188258 Tool Coordinator 2 1New Orleans, LA$DOE12 Months11/18/2020MANO, S
750 188246 Assembler B 5El Segundo, CA$DOE6 Months11/17/2020MANHSM,
751 188247 Software Engineer Sr II 1Arlington, TXUp to $65.00 DOE6 Months11/17/2020ITO, S
752 188235 Embedded Software Engineer 2 5Orlando, FLUp to $80.00 DOE12 Months11/16/2020ITO, S
753 188209 Systems Engineer 5 1El Segundo, CA$DOE12 Months11/13/2020ENGO, TS
754 188101 Assembler B 1El Segundo, CA$DOE6 months11/06/2020MANHSM,
755 188104 Satellite Mechanisms Technician 13El Segundo, CA$DOE6 months11/06/2020MANHSM,
756 188115 Sr Structures and Dynamics Engineer 1Canoga Park, CA$DOE12 Months11/06/2020ENGHSM,
757 188077 Assembler C 1Sylmar, CA$DOE9 Months11/04/2020MANHSM,
758 188029 RF Test Technician 3 1Chelmsford, MAUp to $35.00 DOE3 Months11/02/2020MANO, I
759 188032 Machinist 2 1Chelmsford, MAUp to $32.00 DOE4 Months11/02/2020MANO, OM
760 188024 General Mechanic Level 2 9Jacksonville, FL$DOE12 Months10/30/2020MANHSM, OM
761 187919 Quality Inspector 1Twinsburg, OHUp to $28.00 DOE9 months10/26/2020MANO,
762 187865 Systems Engineer 4 1El Segundo, CA$DOE12 months10/21/2020ENGO, TS
763 187818 Product Repair/Mod Tech C 2Eglin AFB, FL$DOE12 months10/19/2020GENHSM, S
764 187823 Data Entry Specialist 2Las Cruces, NMUp to $20.39 DOE 10/19/2020ADMHSM,
765 187803 Janitor Maintenance Sr 1Stennis, MS$DOE6 Months10/16/2020GENO,
766 187786 RF Test Technician 1Chelmsford, MAUp to $30.00 DOE6 Months10/15/2020MANO, S
767 187526 PDC Machine Operator 1Littleton, CO$DOE5 Months09/30/2020MANO,
768 187529 Manufacturing Technician 1Baltimore, MDUp to $19.23 DOE1 year09/30/2020MANHSM,
769 187388 CDS Machine Operator 1Littleton, CO$DOE3 Months09/22/2020MANO,
770 187356 Software Engineer 3Orlando, FLUp to $65.00 DOE12 Months09/21/2020ITO,
771 187293 Software Engineer 2Denver, CO$DOE6 Months09/16/2020ITO,
772 187163 Systems Engineer 4 1El Segundo, CA$DOE6 Months09/04/2020ENGO, TS
773 187152 Web Applications Test/QA Specialist 1El Segundo, CAUp to $64.10 DOE12 months09/03/2020ITO, OM
774 187109 Electro Mechanical Engineer 1Orlando, FLUp to $65.00 DOE12 Months09/02/2020ENGHSM,
775 186988 Network Security Specialist 4 1El Segundo, CA$DOE5 Months08/25/2020ITO, TS
776 186941 Material Handler 2Stuart, FLUp to $15.00 DOE6+ months08/24/2020GENO,
777 186421 Web Software Developer 1McLean, VA$31.12 to $51.87 DOE1 year07/08/2020ITHSM,
778 186338 Environmental Health & Safety Specialist 1North Las Vegas, NV$25 to $35.00 DOE12-18 months07/01/2020ENGO,
779 185898 Electronic Packaging Designer 1Orlando, FL$DOE6 Months05/21/2020ENGHSM,
780 185757 Assembler 1Pinellas Park, FL$DOE 05/07/2020MANO,
781 185366 Janitor 1Batesville, IN$12 to $14.00 DOE1 - 2 months03/19/2020GENO,
782 183052 Security Escort 1Waterton, CO$DOE12 MONTHS11/14/2019GENHSM, TS
783 182334 Earned Value Management Analyst 1El Segundo, CA$DOEDirect10/15/2019PROO, S
784 181886 Designer 3 5Newport News, VA$27.03 to $35.58 DOE6 months09/26/2019ENGO,
785 181873 Cost Analyst 1Pax River, VA$100000 to $120000.00 DOEPerm09/25/2019PROO, S
786 179369 Machinist 1Daytona Beach, FL$DOE7 Months05/15/2019MANHSM,
787 178643 Maritime Electrician 11San Diego, CA$22 to $28.00 DOE9 Months04/11/2019GENO,
788 174422 Accounting Assistant 1Playa Del Rey, CA$DOEPerm10/10/2018ADMO,
789 166273 Systems Engineer 2 1Dallas, TXUp to $50.00 DOE10 Months11/06/2017ENGOH, S, I
790 155942 Electrical Engineer 1Avondale, LA$42 to $46.00 DOE1 year11/16/2015ENGO, S
791 155943 Electrical Engineer1 1Avondale, LA$36 to $40.00 DOE1 year11/16/2015ENGO, S
792 120289 Client Support Specialist 1Playa del Rey, CA$DOEPermanent11/16/2007ADMO,
Search request
Documents found: